Regional Weather Roundup
Issued by NWS

Home | Current Version | Previous Version | Text Only | Print | Product List | Glossary On
Versions: 1 2 3 4 5 6 7 8 9 10 11 12 13 14 15 16 17 18 19 20 21 22 23 24 25 26 27 28 29 30 31 32 33 34 35 36 37 38 39 40 41 42 43 44 45 46 47 48 49 50
000
ASUS45 KABQ 071810
RWRNM
NEW MEXICO REGIONAL WEATHER ROUNDUP
NATIONAL WEATHER SERVICE ALBUQUERQUE NM
1200 PM MDT TUE JUL 07 2015

NOTE: "FAIR" MEANS FEW OR NO CLOUDS BELOW 12,000 FEET AGL WITH NO
       SIGNIFICANT WEATHER OR OBSTRUCTIONS TO VISION.

      THIS PRODUCT IS RELEASED AS TWO VERSIONS.  ONE VERSION NEAR
      THE TOP OF THE HOUR CONTAINING PRELIMINARY DATA FROM ALBUQUERQUE
      AND OTHER STATIONS.  A FINAL VERSION WITH ADDITIONAL DATA IS
      ISSUED ABOUT 10 MINUTES AFTER THE HOUR.

NMZ501-503-504-510>518-071900-
NORTHWEST PLATEAU/NORTHCENTRAL MOUNTAINS

CITY           SKY/WX    TMP DP  RH WIND       PRES   REMARKS
FARMINGTON     PTSUNNY   79  53  40 CALM      30.13F
6HR MIN TEMP:  62; 6HR MAX TEMP:  80;

LOS ALAMOS     PTSUNNY   64  54  68 S8G16     30.32S
SANTA FE       CLOUDY    67  54  63 S9        30.27S
6HR MIN TEMP:  58; 6HR MAX TEMP:  67; 6HR PCP:  0.08;

TAOS           CLOUDY    63  46  55 SW8       30.32S
ANGEL FIRE     CLOUDY    56  52  87 S8        30.37F

$$
NMZ402-403-502-505>509-071900-
WESTCENTRAL MOUNTAINS/SOUTHWEST MOUNTAINS

CITY           SKY/WX    TMP DP  RH WIND       PRES   REMARKS
GALLUP         SUNNY     77  49  37 SW13G23   30.23F
6HR MIN TEMP:  53; 6HR MAX TEMP:  77;

GRANTS         MOSUNNY   74  57  54 E16       30.26F
SILVER CITY      N/A     82  54  36 SW8       30.19F

$$
NMZ407-409-411-412-071900-
SOUTHERN DESERTS

CITY           SKY/WX    TMP DP  RH WIND       PRES   REMARKS
LORDSBURG      FAIR      88  54  31 NW10      30.09F
DEMING         SUNNY     85  57  38 E10       30.11F
6HR MIN TEMP:  71; 6HR MAX TEMP:  85;

LAS CRUCES     SUNNY     83  57  39 W5        30.14S
HOLLOMAN AFB   MOSUNNY   85  59  41 W8        30.08R
ALAMOGORDO     MOSUNNY   84  57  39 S14G20    30.10R
T OR C         MOSUNNY   82  56  40 NE10      30.14F
6HR MIN TEMP:  66; 6HR MAX TEMP:  82; 6HR PCP:  0.01;


$$
NMZ519>523-071900-
CENTRAL VALLEYS/CENTRAL HIGHLANDS

CITY           SKY/WX    TMP DP  RH WIND       PRES   REMARKS
ALBUQUERQUE    MOSUNNY   73  56  54 VRB7      30.22F
6HR MIN TEMP:  62; 6HR MAX TEMP:  74;

DOUBLE EAGLE   PTSUNNY   72  55  56 SE8       30.25S
MORIARTY ARPT    N/A     68  55  63 SE6       30.29S
6HR MIN TEMP:  57; 6HR MAX TEMP:  68; 6HR PCP:  0.06;

CLINES CORNERS MOSUNNY   64  55  72 SE7       30.31R
6HR MIN TEMP:  55; 6HR MAX TEMP:  64; 6HR PCP:  0.14;

BELEN          FAIR      74  59  59 SW5       30.20F
6HR MIN TEMP:  60; 6HR MAX TEMP:  74;

SOCORRO        FAIR      79  55  43 CALM      30.17F
6HR MIN TEMP:  64; 6HR MAX TEMP:  79;


$$
NMZ524>526-539-540-071900-
SOUTHCENTRAL MOUNTAINS

CITY           SKY/WX    TMP DP  RH WIND       PRES   REMARKS
RUIDOSO        PTSUNNY   64  57  77 SE9       30.32R

$$
NMZ527>531-071900-
NORTHEAST HIGHLANDS/NORTHEAST PLAINS

CITY           SKY/WX    TMP DP  RH WIND       PRES   REMARKS
LAS VEGAS      CLOUDY    59  55  87 E7        30.31R
6HR MIN TEMP:  55; 6HR MAX TEMP:  61; 6HR PCP:  0.05;

RATON          CLOUDY    60  54  80 S7        30.27F HAZE
6HR MIN TEMP:  57; 6HR MAX TEMP:  61;

CLAYTON        CLOUDY    66  52  60 NE9       30.23F HAZE
6HR MIN TEMP:  57; 6HR MAX TEMP:  67;


$$
NMZ532>537-071900-
EASTCENTRAL PLAINS

CITY           SKY/WX    TMP DP  RH WIND       PRES   REMARKS
TUCUMCARI      CLOUDY    69  56  62 NE13      30.17F HAZE
6HR MIN TEMP:  63; 6HR MAX TEMP:  70; 6HR PCP: TRACE;

CANNON AFB     PTSUNNY   66  60  78 NE22G29   30.16F
6HR MIN TEMP:  61; 6HR MAX TEMP:  67; 6HR PCP:  0.01;

CLOVIS AIRPORT CLOUDY    68  61  77 NE20G25     N/A

$$
NMZ028-029-538-071900-
SOUTHEAST PLAINS

CITY           SKY/WX    TMP DP  RH WIND       PRES   REMARKS
ROSWELL        CLOUDY    71  62  73 N13       30.15R
6HR MIN TEMP:  67; 6HR MAX TEMP:  74; 6HR PCP: TRACE;

ARTESIA        CLOUDY    73  66  78 N14       30.14F
CARLSBAD       CLOUDY    77  65  66 NW10      30.10S
6HR MIN TEMP:  70; 6HR MAX TEMP:  77; 6HR PCP: TRACE;

HOBBS          CLOUDY    73  68  83 N12       30.12S


$$


USA.gov is the U.S. government's official web portal to all federal, state and local government web resources and services.